Regional Weather Roundup
Issued by NWS

Home | Current Version | Previous Version | Graphics & Text | Print | Product List | Glossary On
Versions: 1 2 3 4 5 6 7 8 9 10 11 12 13 14 15 16 17 18 19 20 21 22 23 24 25 26 27 28 29 30 31 32 33 34 35 36 37 38 39 40 41 42 43 44 45 46 47 48 49 50
000
ASUS45 KBOU 181207
RWRCO

WEATHER ROUNDUP FOR COLORADO
NATIONAL WEATHER SERVICE DENVER/BOULDER CO
500 AM MST SAT FEB 18 2017

NOTE: "FAIR" INDICATES FEW OR NO CLOUDS BELOW 12000 FEET WITH NO
SIGNIFICANT WEATHER AND/OR OBSTRUCTIONS TO VISIBILITY.

COZ001>005-013-030-031-181300-
...NORTHWEST COLORADO...

CITY           SKY/WX    TMP DP  RH WIND       PRES   REMARKS
CRAIG          FAIR      37  31  78 E6        29.82F
HAYDEN         FAIR      36  28  75 E14       29.83F
MEEKER         CLOUDY    39  35  86 NE6       29.82F
MOUNT WERNER   NOT AVBL
STEAMBOAT SPGS CLOUDY    35  32  90 NE5       29.84F WCI  31
WALDEN           N/A     32  27  80 S9          N/A  WCI  24
$$

COZ006>008-011-181300-
...WEST CENTRAL VALLEYS...

CITY           SKY/WX    TMP DP  RH WIND       PRES   REMARKS
GRAND JUNCTION FAIR      43  37  79 E13       29.80S
MONTROSE       FAIR      38  34  85 E6        29.86S
EAGLE          CLOUDY    37  31  78 E5        29.87F
RIFLE          CLOUDY    41  40  96 SW3       29.85S
DELTA          FAIR      42  38  86 E9        29.84F
NUCLA          FAIR      36  34  93 E5        29.87F
$$

COZ017>023-064>068-181300-
...SOUTHWEST COLORADO...

CITY           SKY/WX    TMP DP  RH WIND       PRES   REMARKS
DURANGO        FAIR      32  29  88 CALM      29.86F
CORTEZ         FAIR      31  30  96 CALM      29.85S
PAGOSA SPRINGS FAIR      34  32  94 NW6       29.90R WCI  29
TELLURIDE      FAIR      32  28  86 CALM      29.90F
WOLF CREEK PAS FAIR      21  21 100 CALM      29.99F
$$

COZ009-010-012-014-032>034-037-058>063-181300-
...CENTRAL COLORADO...

CITY           SKY/WX    TMP DP  RH WIND       PRES   REMARKS
ASPEN          FAIR      32  27  81 CALM      29.85S
BUENA VISTA    FAIR      32  24  72 CALM      29.86S
COPPER MTN     MOCLDY    28  19  69 S8        29.95R WCI  20
BERTHOUD PASS  MOCLDY    19   9  63 NW29      29.91S WCI   1
COTTONWOOD PAS FAIR      36  23  60 SW5       29.90S
GUNNISON       CLOUDY    23  21  92 CALM      29.93R
KREMMLING      CLOUDY    41  34  75 W8        29.87S
LEADVILLE      MOCLDY    26  18  71 CALM      29.88S
MONARCH PASS   FOG       23  21  93 W23       30.03S VSB 1/2 WCI   7
SALIDA         FAIR      40  26  57 NW7       29.92S
SUNLIGHT       NOT AVBL
WILKERSON PASS FAIR      28  19  69 W3        29.95S
$$

COZ069>075-181300-
...SAN LUIS VALLEY/SANGRE DE CRISTO MOUNTAINS...

CITY           SKY/WX    TMP DP  RH WIND       PRES   REMARKS
ALAMOSA        FAIR      28  26  92 SW3       29.87S
LA VETA PASS   FAIR      28  23  80 NE14G20   29.92R WCI  17
SAGUACHE       FAIR      28  27  93 SE3       29.90S
$$

COZ035-036-038>040-181300-
...NORTHERN COLORADO FRONT RANGE...

CITY           SKY/WX    TMP DP  RH WIND       PRES   REMARKS
DENVER INTL AP CLOUDY    34  15  46 S10       29.78R WCI  26
DMNS CITY PARK   N/A     39  14  35 MISG      29.78S
AURORA         MOCLDY    38  17  41 SE7       29.80R
FRONT RANGE AP FAIR      39  19  45 S7        29.79R
ERIE MUNI ARPT FAIR      33  20  59 CALM      29.78S
BOULDER MUN AP FAIR      37  18  44 SE3       29.78R
CENTENNIAL     MOCLDY    41  16  36 SW5       29.79R
BROOMFIELD     FAIR      41  16  36 N6        29.78S
FORT COLLINS   FAIR      38  18  44 E5        29.78F
LONGMONT       FAIR      37  22  56 CALM      29.80S
$$

COZ041-046-047-076>085-087-088-181300-
...PIKES PEAK/PALMER DIVIDE AND SOUTHERN FOOTHILLS...

CITY           SKY/WX    TMP DP  RH WIND       PRES   REMARKS
COLO. SPRINGS  MOCLDY    37  16  42 NE7       29.82R
A. F. ACADEMY  FAIR      34  16  47 N6        29.81R WCI  29
SCHRIEVER AFB  FAIR      37  15  39 N6        29.81S
ELLICOTT       FAIR     N/A N/A N/A CALM      29.80R
FALCON         MOCLDY    38  14  38 SW5       29.84R
FORT CARSON    FAIR      38  15  38 N5        29.79F
LIMON          FAIR      17  13  84 N7        29.81R WCI   8
MONUMENT HILL  MOCLDY    36  18  48 S9        29.83R
TRINIDAD       FAIR      36  19  50 W12       29.82R
$$

COZ042>045-048>051-090-091-181300-
...NORTHEAST COLORADO...

CITY           SKY/WX    TMP DP  RH WIND       PRES   REMARKS
GREELEY ARPT   FAIR      30  19  63 NW3       29.78S
AKRON          FAIR      37  23  56 S13       29.79S
BURLINGTON     FAIR      27  21  78 W3        29.80R
WRAY           NOT AVBL
STERLING       FAIR      36  27  69 CALM      29.78S
HOLYOKE        FAIR      32  27  80 W8        29.80R WCI  25
FORT MORGAN    FAIR      34  21  58 SE3       29.79S
$$

COZ086-089-092>099-181300-
...SOUTHEAST COLORADO...

CITY           SKY/WX    TMP DP  RH WIND       PRES   REMARKS
PUEBLO         FAIR      30  18  60 CALM      29.79S
LA JUNTA       FAIR      31  20  63 SW8       29.79R WCI  23
LAMAR          FAIR      25  19  78 CALM      29.78S
SPRINGFIELD      N/A     28  20  71 W9        29.78R WCI  19
$$



USA.gov is the U.S. government's official web portal to all federal, state and local government web resources and services.